CAPE
1 0 0 0 0 0 0 0 0 91 13 0 0 0 0 0 0 0 18 20 189 408 92 166 514 416 391 273 230 154 124 80 25 0 0 0 0 0 0 0 0 0 0 0 0 0 0 0 0
0 0 0 0 0 0 0 2 23 0 0 0 0 0 0 2 0 0 4 10 143 684 223 105 657 644 708 574 506 389 316 182 112 58 8 0 0 0 0 0 0 0 0 0 0 0 0 4 1
0 0 0 0 0 0 0 11 55 2 1 0 0 0 0 0 0 2 117 55 111 963 437 173 809 757 846 771 720 606 521 365 233 91 81 45 23 0 0 0 0 0 19 44 27 28 13 3 13
0 0 0 0 3 40 52 67 62 4 5 0 0 0 0 0 0 0 0 8 0 244 559 797 788 858 969 1017 945 794 706 596 444 246 291 221 110 194 242 96 48 54 67 128 176 143 134 116 290
0 0 0 0 0 0 0 14 37 26 1 0 4 0 0 0 0 0 16 19 14 0 372 1128 911 1021 1145 1194 1135 989 894 760 687 626 540 465 439 456 492 348 260 362 444 321 298 330 343 341 444
0 0 0 0 0 0 0 2 2 10 0 0 4 2 5 5 4 0 0 68 11 49 169 1549 1150 1060 1148 1334 1333 1106 1029 940 910 901 867 765 766 840 795 773 781 861 598 396 437 283 534 439 375
0 0 0 0 0 0 1 10 1 2 1 18 8 0 0 3 35 59 24 86 121 93 105 1941 1389 1212 1386 1376 1374 1309 1211 1187 1222 1202 1151 1098 1190 1192 1146 1240 1096 1098 799 588 235 169 268 488 601
0 0 0 0 0 0 0 0 0 0 0 3 0 2 0 62 33 37 8 47 92 124 71 1798 1764 1226 1093 1158 1622 1624 1511 1549 1523 1507 1482 1452 1404 1291 1366 1341 1526 1157 904 406 198 177 144 399 536
0 0 0 0 0 0 0 0 0 0 0 1 0 0 0 0 6 0 13 4 5 76 203 226 1798 1891 1332 769 1176 1821 1595 1670 1678 1648 1604 1524 863 554 916 1031 1268 1197 967 537 405 217 226 205 168
0 0 0 0 0 0 3 0 0 0 1 0 5 0 1 5 1 5 17 4 0 0 45 238 265 1268 1562 852 807 1430 1328 1242 1211 867 952 1107 831 972 963 588 1754 1130 1116 660 508 398 304 125 1
0 0 0 0 0 1 0 0 4 13 20 12 33 45 9 0 29 7 0 0 0 1 6 178 493 955 1193 720 817 1633 1299 1036 873 863 1058 1358 1385 1507 1072 693 780 775 842 478 641 420 242 165 87
0 0 0 0 0 12 1 0 1 1 16 24 49 37 17 0 6 1 0 0 0 0 77 85 755 1586 1073 828 979 1737 1617 1220 998 1053 1617 1619 1896 1592 1225 977 1256 716 743 850 926 442 421 324 585
0 0 0 0 2 0 11 0 1 5 6 4 0 7 1 13 9 0 0 3 4 12 57 208 1197 1406 1949 2010 1086 1313 1613 1490 1324 1578 1738 1743 1462 1221 1579 1502 1374 1239 1088 962 654 647 582 419 236
0 0 0 0 0 0 0 0 0 0 4 2 0 0 2 34 14 0 29 119 225 102 277 598 1813 1893 2052 1393 2499 2120 2264 1948 1658 1511 1454 1513 1361 1484 1467 1814 1463 1210 1405 1137 909 709 533 478 221
0 0 0 0 0 2 27 0 8 4 4 0 0 5 17 28 3 1 29 290 187 293 853 1473 2091 2547 2233 2437 2140 3555 2440 2180 1448 1192 1721 1566 1474 1648 1882 1650 1499 1144 1365 1099 976 830 618 520 335
0 0 0 0 0 0 34 0 0 0 1 0 0 6 36 41 17 26 6 141 210 795 1150 1883 360 2679 2635 2747 2529 2200 2256 1797 1783 1290 1475 1391 1824 1702 1866 1515 1250 1279 1376 1220 829 668 577 539 468
0 0 0 0 0 0 20 1 0 4 4 1 5 0 11 0 29 43 234 112 401 1355 1841 1773 1742 2362 2570 3011 2698 2473 2503 1270 1191 1555 1374 1644 1535 1611 1528 1239 1408 1416 1161 936 923 661 717 558 431
0 0 0 0 0 0 12 9 0 20 38 38 44 4 0 0 16 2 260 184 795 760 972 1876 2412 2598 2539 2558 2694 2125 1689 1539 1642 1416 1332 1716 1784 1632 1363 1317 1526 1310 1101 988 604 704 660 468 60
0 0 0 0 0 1 12 1 0 4 48 5 3 3 0 0 17 84 188 635 852 842 1543 2511 2370 2629 2314 2308 1863 1487 1145 1350 1150 1319 1488 1495 1539 1357 1532 1370 1363 939 967 665 622 625 606 366 451
0 0 0 0 0 0 21 9 1 26 4 8 25 3 0 0 107 182 435 1106 1156 1434 1835 1850 1801 2691 2209 2045 1630 1248 1174 953 1054 1183 1693 1554 1438 1540 1338 1436 1191 879 972 623 604 669 404 389 683
0 0 0 0 0 0 0 1 1 0 6 23 5 0 10 16 0 0 461 1133 1066 1230 1406 1423 1848 2192 1960 1762 1662 2413 1868 1920 1608 1330 1269 1519 1123 1164 1504 1245 1002 915 903 645 473 693 529 603 598
0 0 0 0 0 0 0 4 0 0 0 5 5 9 13 0 6 86 540 1152 1164 995 1089 1363 1806 1788 1758 2262 1802 1910 1466 1139 1292 1542 1237 1478 1298 1148 1230 1105 778 854 782 778 752 786 544 673 305
0 0 0 0 0 2 0 1 0 0 0 0 0 0 0 0 83 176 985 1154 955 1065 1135 1388 1645 1529 1901 1858 1668 1922 1806 1675 1499 1220 1332 1437 1397 866 889 907 836 952 927 846 780 966 529 600 581
0 0 0 0 0 19 0 0 0 0 0 0 0 0 0 55 69 172 1050 1005 981 991 1162 1463 1439 1672 1569 1650 2256 1957 1863 1554 1517 1363 1328 1277 1525 1442 985 864 868 1001 1027 803 1008 840 813 740 845
0 3 0 0 0 0 0 0 0 0 0 0 0 0 0 86 106 815 1018 907 943 1056 1280 1344 1329 1426 1415 1544 1567 1368 1509 1083 1098 1259 1370 1256 1314 1184 905 929 906 1080 710 858 949 795 771 882 946
0 0 0 0 0 0 0 0 0 0 0 0 1 0 20 56 807 947 965 938 891 1116 1162 1095 1215 1275 1266 1265 1268 1422 1479 1194 1396 1516 1260 1140 1169 1164 956 1077 887 780 879 703 772 975 628 661 833
0 0 0 1 0 0 0 0 0 0 0 0 0 7 48 642 935 954 901 926 930 1077 1121 1078 1207 1175 1161 1175 1377 1295 1366 1294 1327 1496 1429 917 1401 1123 1029 834 700 769 672 771 915 538 577 562 663
0 0 0 5 0 2 0 0 2 34 53 22 15 11 95 839 855 825 885 958 1023 1048 1157 1296 1236 1153 1031 981 1008 938 1356 496 815 984 1214 1053 1034 583 789 732 841 732 651 753 606 612 716 514 321
1 0 1 0 0 0 0 0 83 219 27 0 0 0 96 810 826 877 782 1010 990 933 975 1221 1073 870 778 911 1113 942 1190 686 1017 1126 1081 1147 1030 695 827 863 865 639 613 746 761 521 614 419 428
19 4 5 1 0 2 0 0 49 1 0 0 9 0 392 766 772 777 826 867 864 907 962 1045 830 501 572 660 735 854 619 889 982 1115 1021 1169 1049 654 545 406 264 664 723 661 615 786 409 484 243
CIN
-90 -0 -0 -0 -0 -0 -0 -0 -0 -11 -18 -0 -0 -0 -0 -0 -0 -1 -76 -81 -140 -339 -607 -611 -502 -472 -423 -392 -366 -357 -343 -299 -198 -0 -0 -0 -0 -0 -0 -0 -0 -0 -0 -0 -0 -0 -0 -0 -0
-0 -0 -0 -0 -0 -0 -0 -10 -29 -0 -0 -0 -0 -0 -0 -3 -0 -0 -6 -21 -112 -335 -555 -602 -477 -432 -382 -358 -323 -292 -262 -252 -239 -240 -126 -0 -0 -0 -0 -0 -0 -0 -0 -0 -0 -0 -0 -0 -0
-0 -0 -0 -0 -0 -0 -8 -14 -57 -21 -5 -0 -0 -0 -0 -0 -0 -15 -57 -49 -124 -257 -424 -532 -455 -419 -356 -326 -305 -277 -249 -237 -238 -259 -228 -228 -210 -0 -0 -0 -0 -0 -72 -122 -166 -175 -219 -0 -0
-0 -0 -0 -0 -109 -66 -15 -0 -22 -1 -5 -0 -0 -0 -0 -0 -0 -0 -0 -56 -0 -134 -284 -414 -442 -393 -342 -299 -278 -263 -243 -205 -203 -206 -171 -166 -178 -123 -64 -88 -97 -64 -19 -14 -48 -71 -69 -69 -2
-0 -0 -0 -0 -0 -0 -0 -17 -11 -21 -6 -0 -6 -0 -0 -0 -0 -0 -75 -42 -57 -0 -181 -379 -439 -371 -309 -264 -239 -218 -190 -174 -157 -133 -129 -124 -103 -64 -29 -45 -51 -14 -0 -0 -0 -2 -17 -15 -0
-0 -0 -0 -0 -0 -0 -0 -16 -1 -1 -1 -0 -2 -6 -3 -38 -30 -0 -0 -53 -59 -57 -141 -342 -434 -394 -316 -258 -212 -195 -170 -149 -126 -95 -87 -84 -54 -10 -5 -8 -8 -0 -0 -0 -0 -0 -0 -4 -8
-0 -0 -0 -0 -0 -0 -1 -7 -1 -0 -7 -5 -34 -0 -0 -29 -43 -35 -49 -39 -49 -40 -85 -258 -352 -362 -291 -260 -221 -193 -158 -134 -123 -81 -62 -55 -5 -0 -0 -0 -1 -0 -0 -1 -36 -48 -4 -0 -0
-0 -0 -0 -0 -0 -0 -0 -0 -0 -0 -0 -3 -0 -30 -0 -20 -26 -24 -14 -8 -20 -34 -43 -196 -310 -320 -320 -279 -201 -167 -137 -111 -101 -78 -59 -37 -4 -0 -0 -5 -0 -5 -2 -46 -88 -64 -71 -0 -0
-0 -0 -0 -0 -0 -0 -0 -0 -0 -0 -0 -7 -0 -0 -0 -0 -3 -0 -11 -37 -13 -7 -59 -116 -159 -281 -292 -302 -238 -138 -144 -121 -87 -72 -71 -51 -119 -159 -67 -91 -34 -15 -10 -46 -46 -83 -59 -48 -57
-0 -0 -0 -0 -0 -0 -2 -0 -0 -0 -10 -0 -61 -1 -0 -3 -8 -17 -1 -24 -0 -0 -13 -75 -146 -179 -264 -241 -270 -195 -181 -193 -175 -223 -191 -143 -144 -106 -61 -81 -9 -20 -19 -38 -45 -49 -51 -92 -42
-0 -0 -0 -0 -0 -11 -0 -0 -2 -0 -6 -11 -2 -0 -7 -2 -10 -7 -0 -0 -0 -22 -50 -31 -247 -242 -189 -270 -255 -197 -197 -245 -249 -246 -188 -103 -68 -42 -35 -84 -82 -88 -36 -63 -26 -43 -70 -83 -98
-0 -0 -0 -0 -4 -30 -9 -1 -0 -1 -1 -1 -0 -4 -2 -0 -7 -2 -0 -0 -0 -0 -75 -123 -204 -245 -241 -225 -192 -198 -152 -217 -233 -221 -109 -88 -30 -32 -53 -42 -19 -81 -59 -34 -24 -44 -34 -38 -21
-0 -0 -0 -0 -14 -0 -27 -4 -0 -19 -22 -10 -0 -1 -2 -9 -7 -0 -0 -27 -59 -65 -79 -79 -174 -244 -251 -221 -184 -149 -132 -131 -146 -94 -87 -72 -71 -79 -19 -23 -17 -21 -14 -26 -32 -19 -14 -20 -29
-0 -0 -0 -0 -0 -0 -0 -0 -0 -0 -0 -0 -3 -0 -0 -5 -0 -2 -33 -55 -40 -74 -75 -65 -139 -239 -218 -289 -158 -127 -70 -44 -50 -67 -68 -108 -93 -42 -18 -12 -18 -20 -20 -24 -39 -22 -13 -17 -39
-0 -0 -0 -0 -0 -0 -0 -0 -0 -0 -0 -0 -0 -2 -0 -1 -2 -4 -71 -38 -47 -63 -44 -18 -61 -198 -240 -218 -199 -42 -44 -33 -76 -93 -29 -40 -68 -22 -8 -10 -10 -22 -21 -22 -22 -14 -19 -22 -37
-0 -0 -0 -0 -0 -0 -0 -0 -0 -0 -0 -0 -0 -0 -0 -9 -3 -18 -64 -25 -55 -56 -37 -28 -90 -153 -198 -170 -132 -79 -25 -75 -34 -84 -31 -26 -14 -6 -4 -8 -11 -15 -16 -3 -10 -11 -11 -16 -20
-0 -0 -0 -0 -0 -0 -0 -0 -0 -0 -0 -1 -0 -0 -1 -0 -10 -31 -33 -35 -58 -52 -50 -63 -101 -140 -170 -88 -63 -38 -14 -149 -110 -35 -26 -24 -19 -7 -10 -11 -10 -6 -14 -13 -4 -6 -4 -9 -13
-0 -0 -0 -0 -0 -0 -0 -0 -0 -1 -0 -0 -1 -0 -0 -0 -7 -16 -35 -28 -47 -80 -82 -61 -112 -133 -144 -96 -22 -70 -78 -71 -51 -22 -19 -9 -15 -6 -13 -14 -9 -6 -1 -0 -6 -1 -9 -12 -46
-0 -0 -0 -0 -0 -0 -0 -0 -0 -0 -0 -9 -16 -8 -0 -0 -10 -33 -34 -37 -112 -129 -155 -162 -157 -129 -139 -97 -101 -122 -115 -80 -53 -16 -10 -8 -8 -6 -8 -10 -9 -11 -1 -7 -6 -4 -5 -10 -6
-0 -0 -0 -0 -0 -0 -0 -0 -0 -1 -3 -5 -3 -7 -0 -0 -12 -14 -28 -121 -155 -212 -228 -239 -232 -107 -134 -101 -106 -107 -84 -86 -37 -27 -20 -12 -6 -10 -6 -6 -4 -7 -0 -6 -4 -1 -6 -7 -4
-0 -0 -0 -0 -0 -0 -0 -0 -0 -0 -0 -2 -4 -0 -9 -12 -0 -0 -17 -148 -196 -261 -291 -290 -204 -148 -125 -104 -67 -8 -20 -11 -12 -16 -26 -27 -15 -8 -4 -4 -5 -3 -1 -7 -15 -4 -2 -1 -3
-0 -0 -0 -0 -0 -0 -0 -0 -0 -0 -0 -0 -89 -5 -7 -1 -52 -32 -35 -162 -220 -282 -324 -276 -191 -157 -110 -41 -32 -10 -11 -17 -15 -14 -48 -24 -4 -5 -6 -5 -8 -4 -8 -7 -6 -8 -13 -4 -8
-0 -0 -0 -0 -0 -0 -0 -0 -0 -0 -0 -0 -0 -0 -2 -0 -11 -10 -89 -153 -214 -296 -310 -247 -180 -146 -66 -32 -17 -5 -6 -10 -9 -8 -10 -8 -11 -21 -4 -2 -5 -3 -3 -2 -4 -1 -18 -4 -4
-0 -0 -0 -0 -0 -0 -0 -0 -0 -0 -0 -0 -0 -0 -0 -7 -8 -12 -105 -167 -249 -286 -278 -210 -170 -102 -63 -17 -3 -4 -7 -9 -9 -5 -16 -3 -2 -4 -6 -2 -5 -2 -2 -8 -2 -3 -2 -5 -4
-0 -0 -0 -0 -0 -0 -0 -0 -0 -0 -0 -0 -0 -0 -0 -16 -1 -79 -134 -171 -273 -270 -235 -190 -140 -98 -30 -1 -2 -1 -1 -8 -5 -2 -11 -2 -3 -3 -8 -3 -3 -2 -17 -8 -2 -4 -3 -4 -7
-0 -0 -0 -0 -0 -0 -0 -0 -0 -0 -0 -0 -6 -0 -61 -13 -39 -88 -136 -213 -257 -242 -211 -177 -132 -73 -20 -2 -1 -2 -1 -3 -9 -9 -4 -7 -4 -2 -6 -2 -4 -7 -4 -7 -8 -6 -16 -16 -17
-0 -0 -0 -0 -0 -0 -0 -0 -0 -0 -0 -0 -0 -109 -30 -24 -50 -102 -153 -221 -249 -217 -171 -148 -99 -44 -8 -2 -3 -1 -2 -1 -1 -6 -1 -14 -0 -2 -3 -2 -4 -2 -2 -6 -7 -26 -24 -22 -16
-0 -0 -0 -0 -0 -0 -0 -0 -0 -12 -31 -49 -104 -21 -18 -22 -38 -92 -150 -201 -198 -177 -126 -83 -47 -16 -13 -11 -2 -12 -8 -4 -21 -8 -1 -1 -9 -10 -8 -4 -1 -4 -13 -12 -17 -19 -17 -22 -30
-0 -0 -0 -0 -0 -0 -0 -0 -10 -3 -2 -0 -22 -0 -48 -27 -50 -85 -151 -161 -165 -157 -126 -57 -33 -36 -35 -9 -4 -35 -10 -11 -10 -7 -0 -2 -8 -9 -3 -1 -1 -4 -6 -5 -14 -22 -11 -21 -23
-0 -0 -0 -0 -0 -0 -0 -0 -20 -1 -0 -0 -67 -0 -27 -39 -62 -101 -139 -164 -159 -130 -96 -48 -45 -82 -57 -39 -14 -36 -26 -23 -7 -4 -1 -0 -3 -7 -16 -11 -13 -4 -2 -3 -7 -3 -23 -13 -37
Wind_Speed
5 7 4 4 4 8 15 18 19 1 2 6 5 2 12 9 11 5 10 13 21 19 17 20 21 20 19 18 18 16 15 13 11 10 9 9 8 7 7 6 4 4 3 2 2 3 3 4 5
10 9 6 6 7 11 11 6 9 6 22 7 2 3 5 4 14 14 12 9 20 19 16 17 20 20 20 19 18 17 16 15 13 12 11 9 8 7 6 5 5 5 5 4 4 5 6 6 6
13 16 8 6 11 14 13 7 7 8 11 4 4 6 2 4 12 12 11 7 19 17 15 15 22 20 20 19 19 18 18 17 16 14 12 10 9 8 7 7 7 7 7 7 7 7 8 8 8
7 7 8 9 19 21 16 11 13 21 10 4 4 5 4 11 4 7 7 9 17 17 16 16 22 20 20 20 20 19 19 18 16 15 13 11 10 9 9 9 8 9 9 9 10 10 10 9 9
10 8 11 14 19 20 17 10 9 6 9 6 2 4 11 9 11 8 8 7 8 15 16 20 25 21 20 20 19 18 17 17 16 15 14 12 11 10 10 10 10 11 10 10 11 12 11 12 9
8 8 12 15 21 21 17 2 12 9 10 9 5 6 3 13 11 7 7 7 8 9 13 18 25 24 21 20 19 18 17 17 16 15 14 12 11 11 10 10 11 12 11 10 9 9 7 6 8
16 12 16 20 21 22 8 7 12 13 7 10 12 4 7 15 11 5 3 6 7 7 13 15 15 18 21 19 18 18 18 17 17 15 14 12 11 10 10 10 11 12 10 9 9 8 9 8 8
13 14 22 20 19 21 17 7 12 13 8 9 3 3 4 7 6 9 10 11 15 14 14 18 16 15 13 12 17 17 17 17 16 16 15 13 11 11 12 13 13 13 12 11 9 9 10 9 9
19 15 16 22 23 21 18 16 14 20 4 13 10 11 12 12 11 12 7 11 10 7 14 19 19 18 16 14 13 15 18 17 16 15 14 11 7 9 14 16 17 17 13 12 12 11 11 12 12
18 16 25 21 22 21 20 17 19 15 6 12 18 17 15 13 5 11 11 11 12 12 9 17 17 19 18 13 13 14 13 10 10 10 10 8 9 8 11 3 15 13 17 16 14 14 14 12 6
22 23 24 23 22 23 23 22 23 22 18 17 18 15 15 14 12 10 13 15 12 12 11 5 15 15 18 14 11 8 8 8 9 13 10 9 8 8 4 4 7 7 12 6 9 9 7 9 7
26 29 27 28 26 26 26 24 28 25 24 16 22 17 15 12 12 14 16 15 12 12 8 10 17 12 14 11 10 12 9 9 9 11 12 8 4 3 3 3 1 7 6 8 5 5 8 8 7
30 29 29 29 26 27 27 29 28 28 25 23 23 20 20 14 13 17 14 11 9 8 7 8 15 14 12 9 9 10 10 9 10 9 10 6 5 5 4 5 4 5 3 4 6 4 2 3 5
27 29 30 30 29 27 28 29 28 25 25 24 23 21 21 21 15 17 9 8 8 6 6 7 13 11 12 12 7 6 6 7 8 5 6 8 5 4 3 4 4 3 3 1 3 2 1 4 4
30 31 30 30 29 30 26 32 29 25 25 24 27 22 22 20 18 17 7 7 5 6 5 3 8 12 11 9 8 3 5 4 5 4 5 7 6 4 3 3 3 4 4 3 3 4 4 4 5
32 33 31 26 30 33 27 32 25 25 22 24 23 21 20 18 17 6 11 5 6 7 5 5 6 13 11 8 6 5 4 4 2 5 4 6 6 5 4 4 4 4 3 2 3 4 3 4 4
29 23 33 31 28 29 30 33 26 25 25 25 20 20 17 21 11 6 10 8 8 8 7 7 7 14 12 9 6 6 5 4 3 3 4 8 8 8 6 4 4 1 1 3 3 4 4 3 3
21 31 31 28 26 28 31 29 26 23 26 24 21 15 15 22 15 7 10 11 3 6 3 2 6 12 12 7 5 4 3 4 4 4 4 6 5 6 5 4 4 3 3 4 3 5 4 4 4
28 31 33 29 27 29 26 26 28 23 20 22 19 14 17 21 15 10 8 2 7 4 6 7 7 7 9 7 8 6 7 4 4 4 6 5 4 4 4 4 3 3 4 6 5 4 4 4 3
34 31 31 29 27 24 23 26 26 22 22 20 19 17 16 19 12 10 8 9 6 6 7 6 6 8 8 6 5 5 5 7 5 5 5 6 5 5 4 5 3 4 4 5 5 5 3 3 4
32 31 28 31 25 27 24 26 25 24 24 19 18 20 15 14 18 20 6 10 9 8 8 7 7 10 8 7 5 2 4 2 3 2 3 4 3 2 5 5 4 4 4 4 5 5 6 4 4
30 27 29 28 24 20 19 19 25 20 21 20 20 17 16 16 20 16 6 12 11 10 9 9 9 9 7 8 5 5 3 3 2 4 5 5 5 5 4 4 4 4 4 4 4 4 5 4 4
34 21 27 28 26 21 23 16 26 17 17 16 13 14 16 15 15 8 16 14 13 11 10 10 11 10 7 5 7 4 4 2 3 2 4 3 2 3 3 4 4 4 3 2 5 4 5 4 3
25 26 29 27 19 19 26 19 28 19 18 17 16 17 16 13 13 11 17 14 14 12 12 11 12 9 8 5 6 4 6 4 3 2 3 1 1 2 4 4 4 3 4 4 3 4 5 5 5
31 23 17 19 19 22 15 21 22 21 18 18 18 15 14 10 13 18 17 15 14 14 13 12 12 10 9 7 5 4 4 2 1 1 1 2 1 1 2 4 3 3 5 3 4 4 4 5 4
28 25 16 27 17 18 21 27 20 21 21 19 15 10 12 16 14 17 15 15 15 15 14 14 13 11 10 8 7 5 5 4 1 3 1 1 2 3 4 4 3 3 4 4 4 3 4 4 4
29 30 30 22 21 20 16 18 30 27 20 14 7 12 14 14 15 15 15 15 15 15 14 13 13 11 10 8 6 5 5 3 2 4 1 1 3 3 4 4 4 4 3 5 5 4 4 3 3
32 20 26 19 26 24 20 23 14 11 15 12 13 9 11 16 16 15 15 14 14 14 12 13 12 11 9 9 6 5 5 2 4 2 3 3 2 4 5 4 3 2 3 3 3 2 3 4 2
24 27 25 21 18 16 15 13 12 2 9 6 9 13 12 17 16 16 15 15 14 14 13 11 11 11 9 8 7 6 5 3 5 3 3 5 3 6 6 4 4 3 5 4 4 3 4 5 5
29 25 25 20 24 16 13 15 6 2 5 5 11 15 19 17 16 16 16 16 15 13 13 11 10 10 9 8 7 8 5 5 4 5 4 5 4 3 4 4 5 4 4 4 2 4 5 6 8
Wind_Direction
187 209 229 241 250 235 243 246 279 39 262 85 28 347 356 338 14 57 147 140 123 137 159 166 163 167 165 167 167 164 164 165 170 168 166 164 163 164 168 168 167 172 199 196 243 262 256 272 278
207 201 226 259 250 252 245 334 30 282 19 29 260 265 277 13 46 96 125 125 130 138 157 168 170 170 170 174 171 168 169 171 176 177 177 176 179 187 194 204 205 213 239 251 246 252 264 255 259
254 237 261 224 231 249 273 189 201 183 207 275 310 133 217 69 77 82 106 130 126 136 155 170 174 175 176 177 175 175 176 177 179 183 182 184 187 198 210 223 231 237 248 260 265 264 264 260 251
218 224 252 252 264 249 263 178 108 247 230 108 246 340 68 87 100 64 92 148 139 149 157 163 174 180 182 183 182 182 179 180 180 184 185 189 197 208 218 227 236 247 256 261 264 267 262 263 268
246 258 248 255 258 267 288 272 156 282 300 270 181 33 76 98 107 121 123 163 174 164 162 158 173 184 186 187 185 186 184 181 184 188 189 194 203 214 221 230 237 242 251 263 270 272 277 267 276
225 224 259 254 253 257 264 52 295 305 307 287 252 277 111 150 119 114 133 170 203 175 153 158 174 180 188 187 187 185 187 185 187 193 194 197 205 216 226 236 247 240 242 255 267 276 281 269 267
243 244 243 256 271 280 271 282 266 286 304 16 9 156 349 100 113 120 150 177 199 216 155 153 171 182 185 189 187 185 188 189 187 193 196 199 209 217 225 238 246 231 236 244 255 266 271 267 258
238 254 264 267 271 271 288 279 282 289 284 81 34 257 301 137 181 168 216 214 192 196 181 155 162 176 188 190 191 189 189 192 192 192 194 198 209 222 230 233 233 228 224 227 234 252 263 263 256
237 253 253 257 262 272 286 315 305 293 133 294 313 307 302 292 285 319 304 272 276 244 190 167 166 170 178 189 192 192 192 196 196 198 195 190 215 225 226 223 225 215 216 223 226 234 246 253 253
228 243 243 246 269 280 274 263 270 275 261 250 299 268 247 289 344 260 271 288 283 292 281 185 178 167 170 180 185 190 197 199 197 202 196 200 216 221 234 118 200 189 198 209 224 230 239 253 254
231 243 250 257 255 271 275 297 297 291 266 275 280 279 305 302 311 300 286 276 291 305 300 282 177 165 167 177 171 180 194 195 202 202 203 197 209 216 202 212 186 181 199 214 217 226 227 227 225
241 235 241 254 261 270 274 279 286 290 295 282 280 292 293 298 307 298 286 283 295 292 308 296 170 161 175 170 170 174 190 190 200 201 200 198 189 195 219 262 192 177 199 205 218 191 214 235 250
238 245 248 251 258 261 267 272 279 278 284 293 294 288 291 281 265 270 263 284 293 294 307 296 164 169 169 170 172 175 189 187 194 191 190 177 182 218 207 207 211 169 194 198 215 195 205 268 245
247 244 255 259 257 256 263 270 271 275 284 283 277 270 275 266 272 272 277 281 285 271 266 269 154 169 168 180 171 160 174 179 186 173 164 168 173 210 237 206 204 193 199 239 6 314 229 255 268
252 259 261 256 262 263 269 264 260 271 268 269 274 275 271 272 266 258 280 289 307 286 243 218 141 163 168 172 178 148 180 177 167 162 164 159 171 206 259 253 213 195 213 198 224 227 230 239 265
249 253 257 251 254 257 258 263 264 270 276 274 280 280 271 258 260 290 279 293 271 252 229 195 173 154 158 163 175 191 175 160 157 167 164 168 163 190 225 225 224 220 133 168 217 242 243 245 249
244 249 251 249 248 264 258 267 264 252 255 258 258 268 270 277 255 265 274 266 248 216 201 165 155 152 155 155 171 188 155 155 215 173 166 167 179 195 206 228 240 181 135 220 213 232 222 237 245
222 234 241 256 247 248 247 254 261 255 256 259 246 256 266 273 255 248 273 280 70 80 71 123 135 133 153 153 165 163 168 179 191 182 186 187 175 195 211 222 214 155 221 230 206 221 215 220 215
238 240 246 253 252 247 253 260 266 276 274 260 268 266 265 260 259 237 251 252 109 102 101 111 121 130 145 151 172 175 194 176 210 200 193 179 175 204 221 234 171 206 216 234 204 207 215 228 171
242 252 253 263 265 260 261 257 258 247 252 261 262 239 254 281 292 275 259 122 125 125 128 139 148 150 149 148 177 189 188 184 196 192 181 171 175 202 193 216 205 224 224 229 208 197 191 216 172
238 238 245 257 266 266 268 268 269 268 270 264 257 270 251 257 278 281 249 137 135 140 146 156 155 142 151 153 199 189 155 69 123 118 170 182 172 197 197 210 222 211 208 217 212 195 202 195 198
242 232 243 249 251 257 254 269 254 261 263 257 254 253 254 245 250 248 189 139 146 146 146 143 138 149 180 174 162 147 146 181 199 186 117 130 187 177 190 198 245 211 221 199 189 204 204 173 208
246 244 248 247 251 260 253 258 267 270 268 269 276 265 258 246 258 250 132 145 143 137 140 139 140 167 172 149 149 158 243 176 157 148 107 81 68 270 214 220 224 203 195 209 203 202 192 199 209
247 240 251 259 257 245 242 242 263 257 263 270 270 261 245 251 235 225 122 138 131 140 140 142 155 171 136 183 138 180 183 39 45 83 69 195 42 297 229 224 179 199 202 223 209 211 193 211 207
237 235 233 234 232 241 243 240 256 265 266 272 272 266 268 264 248 127 135 141 139 146 142 148 164 142 165 174 130 157 107 99 331 5 36 281 141 212 193 215 163 188 216 199 198 181 197 205 219
225 233 229 223 225 241 239 252 260 253 258 253 278 226 238 232 115 126 140 138 148 147 150 161 158 157 167 157 158 145 149 191 213 87 224 265 93 153 182 145 167 179 207 173 162 170 189 221 229
234 221 236 250 240 245 257 241 235 243 245 240 238 232 235 128 129 136 141 146 147 150 159 156 158 160 168 156 148 151 151 208 129 125 85 100 156 156 164 154 162 192 151 131 169 192 194 172 199
237 228 222 228 231 246 234 240 253 184 224 225 194 222 200 134 136 144 144 152 146 152 159 155 158 158 162 153 152 168 138 197 97 106 130 144 201 181 112 125 177 168 174 146 138 221 163 117 96
226 226 220 244 224 237 247 265 296 81 170 174 194 194 182 140 146 146 149 147 147 153 155 156 163 159 158 156 141 132 144 131 112 115 119 118 249 135 135 154 156 146 155 150 172 169 166 132 111
233 226 231 219 217 228 249 236 68 129 230 173 260 177 143 141 147 147 149 152 152 160 152 160 156 163 161 160 163 125 132 110 100 117 133 133 180 179 134 147 158 144 124 161 171 205 163 158 128